Torna al catalogo

STARLINK-30713

AttivoComunicazioniVLEO
NORAD 57952·PAYLOAD·🇺🇸 United States

Lanciato Sep 25, 2023 da Vandenberg Space Force Base

Loading…

Prossimi Passaggi (prossime 24 ore)

TLE

AggiornatoSource: CelesTrak SupGP

Epoca: Sep 15, 2026, 02:51 UTC

1 57952C 23148T   26258.11923611 -.00065049  00000+0 -19217-2 0  2588
2 57952  53.1575 220.9861 0001280  94.1955 245.9590 15.34425116    15

Traccia STARLINK-30713 in tempo reale con AllMySat

Download on the App Store